Location: Orangeville
(43.9200°N, 80.0943°W)
Time: 12:23:11
(UTC-05:00)

ISS - Pass Details

Date: 07 December 2021
Orbit: 413 x 422 km, 51.6° (Epoch: 22 January)

Event Time Altitude Azimuth Distance (km) Brightness Sun altitude
Rises 18:53:39 0° 288° (WNW) 2,379 1.1 -22.8°
Reaches altitude 10° 18:56:23 10° 265° (W) 1,506 0.2 -23.3°
Maximum altitude 18:58:26 15° 228° (SW) 1,224 -0.7 -23.6°
Drops below altitude 10° 19:00:28 10° 190° (S) 1,495 -0.8 -24.0°
Enters shadow 19:00:54 - 185° (S) 1,609 -0.7 -24.1°
